Weather History for KHLN - October, 2013

Change the Weather History Date:

Sunday, October 20, 2013

  Actual Average Record
Temperature  
Mean Temperature 47 °F 44 °F  
Max Temperature 58 °F 57 °F 80 °F (1921)
Min Temperature 36 °F 31 °F 18 °F (1995)
Degree Days  
Heating Degree Days 18 21  
Month to date heating degree days 417 344  
Since 1 July heating degree days 594 650  
Cooling Degree Days 0 0  
Month to date cooling degree days 0 0  
Year to date cooling degree days 589 406  
Moisture  
Dew Point 32 °F    
Average Humidity 53    
Maximum Humidity 73    
Minimum Humidity 33    
Precipitation  
Precipitation 0.00 in 0.02 in 0.24 in (1971)
Month to date precipitation 0.32 0.48  
Year to date precipitation 9.90 10.13  
Snow  
Snow 0.00 in 0.10 in 3.50 in (1981)
Month to date snowfall T 1.4  
Since 1 July snowfall T 3.0  
Since 1 September snowfall T 2.7  
Snow Depth 0.00 in    
Sea Level Pressure  
Sea Level Pressure 30.13 in    
Wind  
Wind Speed 3 mph (NW)    
Max Wind Speed 15 mph    
Max Gust Speed 20 mph    
Visibility 10 miles    
Events      
T = Trace of Precipitation, MM = Missing Value Source: NWS Daily Summary

Daily Weather History Graph

Daily Weather History Graph

Search for Another Location

Airport or City:

Trip Planner

Search our weather history database for the weather conditions in past years. The results will help you decide how hot, cold, wet, or windy it might be!

Date:

Astronomy

Oct. 20, 2013 Rise Set
Actual Time 7:52 AM MDT 6:31 PM MDT
Civil Twilight 7:22 AM MDT 7:02 PM MDT
Nautical Twilight 6:47 AM MDT 7:37 PM MDT
Astronomical Twilight 6:12 AM MDT 8:12 PM MDT
Moon 7:35 PM MDT (10/20) 9:40 AM MDT (10/20)
Length of Visible Light 11h 40m
Length of Day
10h 38m
Full, 97% of the Moon is Illuminated
Oct 20
Full
Oct 26
Last Quarter
Nov 3
New
Nov 9
First Quarter
Nov 17
Full

Hourly Weather History & Observations

Time (MDT) Temp. Windchill Dew Point Humidity Pressure Visibility Wind Dir Wind Speed Gust Speed Precip Events Conditions
12:53 AM 50.0 °F - 30.9 °F 48% 30.09 in 10.0 mi North 11.5 mph - N/A   Overcast
1:53 AM 48.0 °F - 30.9 °F 52% 30.12 in 10.0 mi NNW 11.5 mph - N/A   Overcast
2:53 AM 46.9 °F - 33.1 °F 59% 30.14 in 10.0 mi NNW 5.8 mph - N/A   Overcast
3:53 AM 45.0 °F 43.5 °F 34.0 °F 65% 30.15 in 10.0 mi WNW 3.5 mph - N/A   Overcast
4:53 AM 46.0 °F 43.9 °F 35.1 °F 66% 30.13 in 10.0 mi WSW 4.6 mph - N/A   Overcast
5:53 AM 45.0 °F 42.6 °F 34.0 °F 65% 30.13 in 10.0 mi SW 4.6 mph - N/A   Overcast
6:53 AM 41.0 °F - 34.0 °F 76% 30.15 in 10.0 mi Calm Calm - N/A   Overcast
7:53 AM 42.1 °F - 34.0 °F 73% 30.15 in 10.0 mi Calm Calm - N/A   Scattered Clouds
8:53 AM 45.0 °F 42.6 °F 32.0 °F 60% 30.14 in 10.0 mi SW 4.6 mph - N/A   Scattered Clouds
9:53 AM 45.0 °F 42.6 °F 34.0 °F 65% 30.17 in 10.0 mi NE 4.6 mph - N/A   Overcast
10:53 AM 50.0 °F - 34.0 °F 54% 30.15 in 10.0 mi NNE 3.5 mph - N/A   Mostly Cloudy
11:53 AM 50.0 °F - 33.1 °F 52% 30.15 in 10.0 mi ENE 4.6 mph - N/A   Mostly Cloudy
12:53 PM 53.1 °F - 28.9 °F 40% 30.12 in 10.0 mi SE 6.9 mph - N/A   Clear
1:53 PM 55.0 °F - 28.0 °F 35% 30.09 in 10.0 mi East 8.1 mph - N/A   Clear
2:53 PM 55.9 °F - 28.9 °F 36% 30.07 in 10.0 mi Calm Calm - N/A   Scattered Clouds
3:53 PM 55.9 °F - 28.9 °F 36% 30.07 in 10.0 mi ESE 4.6 mph - N/A   Scattered Clouds
4:53 PM 57.0 °F - 30.0 °F 36% 30.07 in 10.0 mi Calm Calm - N/A   Clear
5:53 PM 57.0 °F - 28.9 °F 34% 30.08 in 10.0 mi Calm Calm - N/A   Mostly Cloudy
6:53 PM 51.1 °F - 30.9 °F 46% 30.11 in 10.0 mi WSW 3.5 mph - N/A   Mostly Cloudy
7:53 PM 48.9 °F - 30.9 °F 50% 30.12 in 10.0 mi WNW 4.6 mph - N/A   Clear
8:53 PM 45.0 °F 43.5 °F 30.9 °F 58% 30.15 in 10.0 mi NNW 3.5 mph - N/A   Clear
9:53 PM 44.1 °F 42.5 °F 30.9 °F 60% 30.16 in 10.0 mi SSW 3.5 mph - N/A   Clear
10:53 PM 45.0 °F - 30.0 °F 56% 30.16 in 10.0 mi Calm Calm - N/A   Clear
11:53 PM 43.0 °F - 30.0 °F 60% 30.17 in 10.0 mi Calm Calm - N/A   Clear